| time (UTC) | temp F | wind direction | speed MPH | gust MPH | rain 1hr in | rain 24hr in | rain mn in | humidity % | barometer mb |
| 20260831194633 | 68 | 132 | 1.0 | 5.0 | 0.09 | 0.51 | 0.51 | 90 | 1019.8 |
| 20260831194053 | 68 | 0 | 2.0 | 5.0 | 0.10 | 0.51 | 0.51 | 90 | 1020.0 |
| 20260831193555 | 68 | 0 | 0.0 | 4.0 | 0.10 | 0.50 | 0.50 | 90 | 1020.1 |
| 20260831193059 | 68 | 0 | 0.0 | 4.0 | 0.10 | 0.49 | 0.49 | 90 | 1020.3 |
| 20260831192551 | 68 | 233 | 0.0 | 5.0 | 0.10 | 0.48 | 0.48 | 90 | 1020.4 |
| 20260831192053 | 68 | 234 | 0.0 | 5.0 | 0.10 | 0.48 | 0.48 | 90 | 1020.4 |
| 20260831191605 | 68 | 233 | 2.0 | 5.0 | 0.08 | 0.46 | 0.46 | 90 | 1020.6 |
| 20260831191055 | 68 | 238 | 0.0 | 1.0 | 0.08 | 0.46 | 0.46 | 90 | 1020.4 |
| 20260831190549 | 67 | 0 | 0.0 | 2.0 | 0.08 | 0.45 | 0.45 | 89 | 1020.3 |
| 20260831190120 | 67 | 0 | 0.0 | 2.0 | 0.09 | 0.45 | 0.45 | 89 | 1020.7 |
| 20260831185552 | 67 | 0 | 0.0 | 1.0 | 0.11 | 0.44 | 0.44 | 89 | 1020.8 |
| 20260831185051 | 67 | 0 | 0.0 | 1.0 | 0.12 | 0.42 | 0.42 | 89 | 1020.9 |
| 20260831184631 | 68 | 0 | 0.0 | 1.0 | 0.15 | 0.42 | 0.42 | 89 | 1021.0 |
| 20260831184053 | 68 | 0 | 0.0 | 2.0 | 0.15 | 0.41 | 0.41 | 90 | 1020.9 |
| 20260831183551 | 68 | 0 | 0.0 | 2.0 | 0.14 | 0.40 | 0.40 | 89 | 1020.9 |
| 20260831183107 | 68 | 0 | 0.0 | 2.0 | 0.13 | 0.39 | 0.39 | 89 | 1020.7 |
| 20260831182551 | 68 | 0 | 0.0 | 3.0 | 0.13 | 0.38 | 0.38 | 89 | 1020.6 |
| 20260831182051 | 68 | 0 | 0.0 | 3.0 | 0.17 | 0.38 | 0.38 | 89 | 1020.4 |
| 20260831181556 | 68 | 0 | 0.0 | 3.0 | 0.19 | 0.38 | 0.38 | 89 | 1020.9 |
| 20260831181048 | 68 | 0 | 0.0 | 3.0 | 0.19 | 0.38 | 0.38 | 89 | 1021.0 |
| 20260831180551 | 68 | 0 | 1.0 | 5.0 | 0.18 | 0.37 | 0.37 | 88 | 1021.0 |
| 20260831180103 | 68 | 0 | 0.0 | 8.0 | 0.16 | 0.35 | 0.35 | 88 | 1021.0 |
| 20260831175553 | 68 | 0 | 2.0 | 10.0 | 0.14 | 0.33 | 0.33 | 87 | 1021.0 |
| 20260831175051 | 68 | 266 | 3.0 | 10.0 | 0.11 | 0.30 | 0.30 | 86 | 1020.9 |
| 20260831174611 | 69 | 271 | 4.0 | 9.0 | 0.07 | 0.26 | 0.26 | 86 | 1020.8 |
| 20260831174048 | 69 | 300 | 4.0 | 9.0 | 0.08 | 0.26 | 0.26 | 85 | 1020.6 |
| 20260831173551 | 69 | 279 | 4.0 | 9.0 | 0.08 | 0.26 | 0.26 | 83 | 1020.7 |
| 20260831173105 | 70 | 275 | 4.0 | 12.0 | 0.08 | 0.26 | 0.26 | 81 | 1020.5 |
| 20260831172550 | 71 | 0 | 1.0 | 13.0 | 0.07 | 0.25 | 0.25 | 80 | 1020.5 |
| 20260831172051 | 72 | 283 | 5.0 | 13.0 | 0.03 | 0.21 | 0.21 | 77 | 1020.5 |
| 20260831171603 | 72 | 269 | 5.0 | 12.0 | 0.01 | 0.19 | 0.19 | 77 | 1020.1 |
| 20260831171049 | 72 | 258 | 5.0 | 12.0 | 0.01 | 0.19 | 0.19 | 78 | 1020.1 |
| 20260831170555 | 72 | 278 | 4.0 | 11.0 | 0.01 | 0.19 | 0.19 | 78 | 1020.0 |
| 20260831165555 | 73 | 263 | 4.0 | 9.0 | 0.01 | 0.19 | 0.19 | 80 | 1019.9 |
| 20260831165051 | 73 | 259 | 2.0 | 8.0 | 0.01 | 0.19 | 0.19 | 79 | 1019.7 |
| 20260831164601 | 74 | 261 | 3.0 | 9.0 | 0.01 | 0.19 | 0.19 | 77 | 1019.6 |
| 20260831164054 | 74 | 289 | 3.0 | 9.0 | 0.00 | 0.18 | 0.18 | 77 | 1019.5 |
| 20260831163551 | 75 | 267 | 3.0 | 7.0 | 0.00 | 0.18 | 0.18 | 76 | 1019.4 |
| 20260831163103 | 75 | 265 | 3.0 | 7.0 | 0.00 | 0.18 | 0.18 | 76 | 1019.5 |
| 20260831162552 | 75 | 267 | 1.0 | 5.0 | 0.00 | 0.18 | 0.18 | 75 | 1019.3 |
| 20260831162052 | 75 | 331 | 0.0 | 6.0 | 0.00 | 0.18 | 0.18 | 75 | 1019.0 |
| 20260831161605 | 75 | 290 | 0.0 | 6.0 | 0.00 | 0.18 | 0.18 | 76 | 1018.8 |
| 20260831161056 | 75 | 335 | 2.0 | 6.0 | 0.00 | 0.18 | 0.18 | 76 | 1018.7 |
| 20260831160551 | 76 | 319 | 2.0 | 6.0 | 0.00 | 0.18 | 0.18 | 78 | 1018.5 |
| 20260831160109 | 75 | 337 | 2.0 | 5.0 | 0.00 | 0.18 | 0.18 | 78 | 1018.4 |
| 20260831155552 | 75 | 324 | 0.0 | 0.0 | 0.00 | 0.18 | 0.18 | 80 | 1018.5 |
| 20260831155054 | 75 | 0 | 0.0 | 4.0 | 0.00 | 0.18 | 0.18 | 80 | 1018.2 |
| 20260831154628 | 75 | 0 | 0.0 | 5.0 | 0.00 | 0.18 | 0.18 | 81 | 1018.1 |
| 20260831154051 | 75 | 325 | 1.0 | 7.0 | 0.00 | 0.18 | 0.18 | 80 | 1018.1 |
| 20260831153551 | 75 | 0 | 2.0 | 7.0 | 0.00 | 0.18 | 0.18 | 82 | 1018.0 |
| 20260831153102 | 74 | 5 | 2.0 | 7.0 | 0.00 | 0.18 | 0.18 | 80 | 1017.9 |
| 20260831152551 | 74 | 0 | 2.0 | 7.0 | 0.00 | 0.18 | 0.18 | 82 | 1017.8 |
| 20260831152048 | 74 | 338 | 1.0 | 6.0 | 0.00 | 0.18 | 0.18 | 81 | 1017.9 |
| 20260831151605 | 74 | 340 | 1.0 | 5.0 | 0.00 | 0.18 | 0.18 | 83 | 1017.8 |
| 20260831151052 | 73 | 0 | 0.0 | 0.0 | 0.00 | 0.18 | 0.18 | 84 | 1017.7 |
| 20260831150550 | 73 | 0 | 0.0 | 0.0 | 0.00 | 0.18 | 0.18 | 84 | 1017.6 |
| 20260831150054 | 73 | 0 | 0.0 | 0.0 | 0.00 | 0.18 | 0.18 | 84 | 1017.4 |
| 20260831145551 | 72 | 0 | 0.0 | 0.0 | 0.00 | 0.18 | 0.18 | 84 | 1017.4 |
| 20260831145052 | 72 | 0 | 0.0 | 0.0 | 0.00 | 0.18 | 0.18 | 84 | 1017.3 |
| 20260831144630 | 72 | 0 | 0.0 | 0.0 | 0.00 | 0.18 | 0.18 | 85 | 1017.3 |
| 20260831144051 | 72 | 0 | 0.0 | 0.0 | 0.01 | 0.18 | 0.18 | 85 | 1017.2 |
| 20260831143548 | 72 | 0 | 0.0 | 2.0 | 0.01 | 0.18 | 0.18 | 84 | 1017.1 |
| 20260831143101 | 72 | 0 | 0.0 | 4.0 | 0.02 | 0.18 | 0.18 | 84 | 1017.2 |
| 20260831142552 | 71 | 0 | 0.0 | 6.0 | 0.02 | 0.18 | 0.18 | 83 | 1017.2 |
| 20260831142051 | 71 | 306 | 2.0 | 12.0 | 0.02 | 0.18 | 0.18 | 82 | 1017.2 |
| 20260831141601 | 71 | 239 | 1.0 | 12.0 | 0.02 | 0.18 | 0.18 | 82 | 1017.2 |
| 20260831141051 | 70 | 229 | 5.0 | 11.0 | 0.03 | 0.18 | 0.18 | 83 | 1017.1 |
| 20260831140555 | 70 | 242 | 3.0 | 9.0 | 0.03 | 0.18 | 0.18 | 86 | 1017.0 |
| 20260831140107 | 70 | 231 | 3.0 | 9.0 | 0.03 | 0.18 | 0.18 | 87 | 1017.0 |
| 20260831135551 | 69 | 229 | 4.0 | 8.0 | 0.03 | 0.18 | 0.18 | 87 | 1017.2 |
| 20260831135051 | 69 | 250 | 3.0 | 8.0 | 0.04 | 0.18 | 0.18 | 88 | 1017.3 |
| 20260831134606 | 69 | 248 | 2.0 | 8.0 | 0.04 | 0.18 | 0.18 | 88 | 1017.3 |
| 20260831134051 | 69 | 257 | 3.0 | 14.0 | 0.03 | 0.17 | 0.17 | 88 | 1017.1 |
| 20260831133551 | 69 | 252 | 4.0 | 14.0 | 0.03 | 0.17 | 0.17 | 88 | 1017.1 |
| 20260831133103 | 69 | 244 | 6.0 | 12.0 | 0.02 | 0.16 | 0.16 | 88 | 1017.4 |
| 20260831132551 | 69 | 252 | 6.0 | 10.0 | 0.02 | 0.16 | 0.16 | 88 | 1017.3 |
| 20260831132051 | 69 | 235 | 2.0 | 9.0 | 0.02 | 0.16 | 0.16 | 89 | 1017.3 |
| 20260831131600 | 69 | 239 | 2.0 | 9.0 | 0.02 | 0.16 | 0.16 | 89 | 1017.4 |
| 20260831131050 | 68 | 244 | 3.0 | 8.0 | 0.01 | 0.15 | 0.15 | 88 | 1017.2 |
| 20260831130550 | 68 | 279 | 0.0 | 6.0 | 0.02 | 0.15 | 0.15 | 88 | 1017.6 |
| 20260831130116 | 68 | 33 | 0.0 | 6.0 | 0.09 | 0.15 | 0.15 | 88 | 1017.7 |
| 20260831125555 | 68 | 43 | 1.0 | 6.0 | 0.15 | 0.15 | 0.15 | 87 | 1018.0 |
| 20260831125050 | 68 | 0 | 1.0 | 4.0 | 0.14 | 0.14 | 0.14 | 87 | 1018.3 |
| 20260831124604 | 69 | 0 | 0.0 | 4.0 | 0.14 | 0.14 | 0.14 | 88 | 1018.2 |
| 20260831124051 | 69 | 298 | 0.0 | 8.0 | 0.14 | 0.14 | 0.14 | 87 | 1018.0 |
| 20260831123554 | 69 | 0 | 1.0 | 8.0 | 0.14 | 0.14 | 0.14 | 87 | 1017.7 |
| 20260831123103 | 69 | 317 | 3.0 | 8.0 | 0.14 | 0.14 | 0.14 | 86 | 1017.8 |
| 20260831122551 | 69 | 0 | 1.0 | 11.0 | 0.14 | 0.14 | 0.14 | 86 | 1017.8 |
| 20260831122051 | 69 | 327 | 2.0 | 12.0 | 0.14 | 0.14 | 0.14 | 85 | 1017.7 |
| 20260831121556 | 70 | 285 | 5.0 | 14.0 | 0.14 | 0.14 | 0.14 | 83 | 1017.3 |
| 20260831121054 | 71 | 271 | 4.0 | 14.0 | 0.14 | 0.14 | 0.14 | 81 | 1017.1 |
| 20260831120553 | 72 | 338 | 7.0 | 13.0 | 0.13 | 0.13 | 0.13 | 78 | 1017.2 |
| 20260831120108 | 74 | 275 | 1.0 | 8.0 | 0.05 | 0.05 | 0.05 | 73 | 1017.5 |
| 20260831115550 | 74 | 0 | 0.0 | 11.0 | 0.00 | 0.00 | 0.00 | 71 | 1017.2 |
| 20260831115051 | 74 | 265 | 3.0 | 12.0 | 0.00 | 0.00 | 0.00 | 70 | 1016.8 |
| 20260831114605 | 74 | 360 | 6.0 | 16.0 | 0.00 | 0.00 | 0.00 | 69 | 1016.6 |
| 20260831114050 | 74 | 360 | 7.0 | 18.0 | 0.00 | 0.00 | 0.00 | 68 | 1016.7 |
| 20260831113551 | 74 | 360 | 10.0 | 20.0 | 0.00 | 0.00 | 0.00 | 70 | 1016.7 |
| 20260831113105 | 73 | 360 | 11.0 | 20.0 | 0.00 | 0.00 | 0.00 | 72 | 1016.4 |
| 20260831112551 | 73 | 360 | 9.0 | 22.0 | 0.00 | 0.00 | 0.00 | 73 | 1016.5 |
| 20260831112050 | 73 | 360 | 10.0 | 25.0 | 0.00 | 0.00 | 0.00 | 73 | 1016.4 |
| 20260831111611 | 73 | 360 | 11.0 | 25.0 | 0.00 | 0.00 | 0.00 | 72 | 1016.3 |
| 20260831111049 | 74 | 360 | 12.0 | 24.0 | 0.00 | 0.00 | 0.00 | 71 | 1016.3 |
| 20260831110554 | 75 | 360 | 13.0 | 27.0 | 0.00 | 0.00 | 0.00 | 67 | 1015.9 |
| 20260831110150 | 78 | 360 | 8.0 | 27.0 | 0.00 | 0.00 | 0.00 | 63 | 1015.8 |
| 20260831105555 | 80 | 360 | 11.0 | 25.0 | 0.00 | 0.00 | 0.00 | 58 | 1015.9 |
| 20260831105051 | 81 | 360 | 3.0 | 9.0 | 0.00 | 0.00 | 0.00 | 52 | 1015.5 |
| 20260831104600 | 80 | 360 | 1.0 | 3.0 | 0.00 | 0.00 | 0.00 | 53 | 1014.9 |
| 20260831104053 | 80 | 0 | 0.0 | 4.0 | 0.00 | 0.00 | 0.00 | 53 | 1014.7 |
| 20260831103552 | 80 | 0 | 0.0 | 4.0 | 0.00 | 0.00 | 0.00 | 53 | 1014.5 |
| 20260831103059 | 80 | 360 | 0.0 | 0.0 | 0.00 | 0.00 | 0.00 | 53 | 1014.5 |
| 20260831102551 | 80 | 0 | 0.0 | 0.0 | 0.00 | 0.00 | 0.00 | 53 | 1014.4 |
| 20260831102052 | 80 | 0 | 0.0 | 0.0 | 0.00 | 0.00 | 0.00 | 53 | 1014.2 |
| 20260831101605 | 80 | 0 | 0.0 | 2.0 | 0.00 | 0.00 | 0.00 | 53 | 1014.3 |
| 20260831101052 | 80 | 0 | 0.0 | 2.0 | 0.00 | 0.00 | 0.00 | 53 | 1014.3 |
| 20260831100551 | 80 | 360 | 0.0 | 2.0 | 0.00 | 0.00 | 0.00 | 54 | 1014.3 |
| 20260831100112 | 80 | 360 | 0.0 | 3.0 | 0.00 | 0.00 | 0.00 | 54 | 1014.4 |
| 20260831095551 | 80 | 0 | 0.0 | 3.0 | 0.00 | 0.00 | 0.00 | 54 | 1014.3 |
| 20260831095051 | 80 | 0 | 0.0 | 0.0 | 0.00 | 0.00 | 0.00 | 54 | 1014.1 |
| 20260831094602 | 80 | 0 | 0.0 | 0.0 | 0.00 | 0.00 | 0.00 | 54 | 1014.1 |
| 20260831094054 | 80 | 0 | 0.0 | 2.0 | 0.00 | 0.00 | 0.00 | 54 | 1014.2 |
| 20260831093551 | 80 | 0 | 0.0 | 3.0 | 0.00 | 0.00 | 0.00 | 54 | 1014.2 |
| 20260831093100 | 80 | 0 | 1.0 | 3.0 | 0.00 | 0.00 | 0.00 | 54 | 1014.1 |
| 20260831092551 | 80 | 0 | 0.0 | 1.0 | 0.00 | 0.00 | 0.00 | 54 | 1014.0 |
| 20260831092055 | 80 | 0 | 0.0 | 0.0 | 0.00 | 0.00 | 0.00 | 54 | 1014.0 |
| 20260831091606 | 80 | 0 | 0.0 | 0.0 | 0.00 | 0.00 | 0.00 | 54 | 1014.1 |
| 20260831091052 | 80 | 0 | 0.0 | 2.0 | 0.00 | 0.00 | 0.00 | 53 | 1014.2 |
| 20260831090554 | 80 | 0 | 0.0 | 2.0 | 0.00 | 0.00 | 0.00 | 54 | 1014.3 |
| 20260831085550 | 81 | 0 | 0.0 | 0.0 | 0.00 | 0.00 | 0.00 | 53 | 1014.5 |
| 20260831085052 | 81 | 0 | 0.0 | 0.0 | 0.00 | 0.00 | 0.00 | 52 | 1014.4 |
| 20260831084603 | 81 | 0 | 0.0 | 0.0 | 0.00 | 0.00 | 0.00 | 51 | 1014.4 |
| 20260831084055 | 81 | 0 | 0.0 | 0.0 | 0.00 | 0.00 | 0.00 | 50 | 1014.4 |
| 20260831083551 | 82 | 0 | 0.0 | 0.0 | 0.00 | 0.00 | 0.00 | 50 | 1014.4 |
| 20260831083105 | 82 | 0 | 0.0 | 2.0 | 0.00 | 0.00 | 0.00 | 50 | 1014.4 |
| 20260831082552 | 82 | 0 | 0.0 | 2.0 | 0.00 | 0.00 | 0.00 | 49 | 1014.4 |
| 20260831082054 | 82 | 360 | 0.0 | 2.0 | 0.00 | 0.00 | 0.00 | 50 | 1014.4 |
| 20260831081634 | 82 | 360 | 0.0 | 1.0 | 0.00 | 0.00 | 0.00 | 51 | 1014.4 |
| 20260831081054 | 82 | 0 | 0.0 | 2.0 | 0.00 | 0.00 | 0.00 | 51 | 1014.4 |
| 20260831080553 | 82 | 360 | 0.0 | 2.0 | 0.00 | 0.00 | 0.00 | 51 | 1014.4 |
| 20260831080100 | 82 | 0 | 0.0 | 0.0 | 0.00 | 0.00 | 0.00 | 51 | 1014.4 |
| 20260831075552 | 82 | 0 | 0.0 | 0.0 | 0.00 | 0.00 | 0.00 | 51 | 1014.4 |
| 20260831075050 | 82 | 0 | 0.0 | 0.0 | 0.00 | 0.00 | 0.00 | 51 | 1014.5 |
| 20260831074607 | 82 | 0 | 0.0 | 0.0 | 0.00 | 0.00 | 0.00 | 51 | 1014.4 |
| 20260831074050 | 82 | 0 | 0.0 | 0.0 | 0.00 | 0.00 | 0.00 | 51 | 1014.4 |
| 20260831073550 | 82 | 0 | 0.0 | 0.0 | 0.00 | 0.00 | 0.00 | 50 | 1014.5 |
| 20260831073210 | 82 | 0 | 0.0 | 0.0 | 0.00 | 0.00 | 0.00 | 50 | 1014.5 |
| 20260831072549 | 83 | 0 | 0.0 | 0.0 | 0.00 | 0.00 | 0.00 | 50 | 1014.5 |
| 20260831072051 | 83 | 0 | 0.0 | 0.0 | 0.00 | 0.00 | 0.00 | 50 | 1014.6 |
| 20260831071601 | 83 | 0 | 0.0 | 0.0 | 0.00 | 0.00 | 0.00 | 49 | 1014.6 |
| 20260831071052 | 83 | 0 | 0.0 | 0.0 | 0.00 | 0.00 | 0.00 | 49 | 1014.6 |
| 20260831070552 | 83 | 0 | 0.0 | 0.0 | 0.00 | 0.00 | 0.00 | 49 | 1014.6 |
| 20260831070101 | 83 | 0 | 0.0 | 0.0 | 0.00 | 0.00 | 0.00 | 48 | 1014.6 |
| 20260831065550 | 84 | 0 | 0.0 | 0.0 | 0.00 | 0.00 | 0.00 | 48 | 1014.7 |
| 20260831065050 | 84 | 0 | 0.0 | 0.0 | 0.00 | 0.00 | 0.00 | 48 | 1014.7 |
| 20260831064602 | 84 | 0 | 0.0 | 2.0 | 0.00 | 0.00 | 0.00 | 48 | 1014.9 |
| 20260831064055 | 84 | 0 | 0.0 | 2.0 | 0.00 | 0.00 | 0.00 | 47 | 1014.8 |
| 20260831063550 | 84 | 0 | 1.0 | 2.0 | 0.00 | 0.00 | 0.00 | 47 | 1014.8 |
| 20260831063102 | 84 | 360 | 0.0 | 2.0 | 0.00 | 0.00 | 0.00 | 48 | 1014.9 |
| 20260831062552 | 84 | 0 | 0.0 | 2.0 | 0.00 | 0.00 | 0.00 | 47 | 1014.9 |
| 20260831062049 | 84 | 0 | 0.0 | 3.0 | 0.00 | 0.00 | 0.00 | 48 | 1014.8 |
| 20260831061600 | 84 | 0 | 0.0 | 3.0 | 0.00 | 0.00 | 0.00 | 48 | 1014.9 |
| 20260831061050 | 84 | 360 | 0.0 | 4.0 | 0.00 | 0.00 | 0.00 | 48 | 1014.8 |
| 20260831060549 | 84 | 0 | 0.0 | 4.0 | 0.00 | 0.00 | 0.00 | 48 | 1014.8 |
| 20260831060115 | 84 | 360 | 1.0 | 3.0 | 0.00 | 0.00 | 0.00 | 47 | 1014.9 |
| 20260831055549 | 84 | 0 | 0.0 | 5.0 | 0.00 | 0.00 | 0.00 | 47 | 1014.7 |
| 20260831055050 | 85 | 0 | 0.0 | 8.0 | 0.00 | 0.00 | 0.00 | 47 | 1014.7 |
| 20260831054554 | 85 | 360 | 3.0 | 8.0 | 0.00 | 0.00 | 0.00 | 46 | 1014.5 |
| 20260831054051 | 85 | 360 | 3.0 | 9.0 | 0.00 | 0.00 | 0.00 | 46 | 1014.6 |
| 20260831053550 | 85 | 360 | 3.0 | 9.0 | 0.00 | 0.00 | 0.00 | 45 | 1014.5 |
| 20260831053101 | 86 | 360 | 2.0 | 6.0 | 0.00 | 0.00 | 0.00 | 44 | 1014.4 |
| 20260831052551 | 86 | 0 | 3.0 | 6.0 | 0.00 | 0.00 | 0.00 | 44 | 1014.4 |
| 20260831052050 | 87 | 360 | 2.0 | 10.0 | 0.00 | 0.00 | 0.00 | 42 | 1014.3 |
| 20260831051555 | 87 | 360 | 4.0 | 12.0 | 0.00 | 0.00 | 0.00 | 43 | 1014.3 |
| 20260831051049 | 88 | 360 | 3.0 | 15.0 | 0.00 | 0.00 | 0.00 | 45 | 1014.1 |
| 20260831050549 | 87 | 360 | 6.0 | 15.0 | 0.00 | 0.00 | 0.00 | 45 | 1014.0 |
| 20260831050141 | 87 | 360 | 7.0 | 15.0 | 0.00 | 0.00 | 0.00 | 44 | 1014.0 |
| 20260831045549 | 88 | 360 | 9.0 | 15.0 | 0.00 | 0.00 | 0.00 | 44 | 1014.0 |
| 20260831045050 | 88 | 360 | 9.0 | 15.0 | 0.00 | 0.00 | 0.00 | 44 | 1013.9 |
| 20260831044604 | 88 | 360 | 8.0 | 18.0 | 0.00 | 0.00 | 0.00 | 43 | 1013.8 |
| 20260831044055 | 88 | 360 | 11.0 | 18.0 | 0.00 | 0.00 | 0.00 | 43 | 1013.9 |
| 20260831043551 | 88 | 360 | 10.0 | 23.0 | 0.00 | 0.00 | 0.00 | 43 | 1014.0 |
| 20260831043108 | 88 | 360 | 8.0 | 23.0 | 0.00 | 0.00 | 0.00 | 43 | 1014.0 |
| 20260831042551 | 88 | 360 | 10.0 | 18.0 | 0.00 | 0.00 | 0.00 | 43 | 1014.0 |
| 20260831042053 | 88 | 360 | 8.0 | 18.0 | 0.00 | 0.00 | 0.00 | 43 | 1013.9 |
| 20260831041607 | 88 | 360 | 11.0 | 18.0 | 0.00 | 0.00 | 0.00 | 43 | 1014.0 |
| 20260831041052 | 88 | 360 | 11.0 | 19.0 | 0.00 | 0.00 | 0.00 | 43 | 1013.9 |
| 20260831040552 | 88 | 360 | 11.0 | 22.0 | 0.00 | 0.00 | 0.00 | 42 | 1013.9 |
| 20260831040110 | 88 | 360 | 12.0 | 22.0 | 0.00 | 0.00 | 0.00 | 42 | 1013.8 |
| 20260831035553 | 88 | 360 | 12.0 | 22.0 | 0.00 | 0.00 | 0.00 | 41 | 1013.6 |
| 20260831035052 | 88 | 360 | 11.0 | 19.0 | 0.00 | 0.00 | 0.00 | 40 | 1013.6 |
| 20260831034612 | 88 | 360 | 10.0 | 19.0 | 0.00 | 0.00 | 0.00 | 40 | 1013.6 |
| 20260831034052 | 88 | 360 | 10.0 | 19.0 | 0.00 | 0.00 | 0.00 | 40 | 1013.5 |
| 20260831033552 | 88 | 360 | 10.0 | 21.0 | 0.00 | 0.00 | 0.00 | 40 | 1013.3 |
| 20260831033103 | 89 | 360 | 10.0 | 21.0 | 0.00 | 0.00 | 0.00 | 40 | 1013.3 |
| 20260831032552 | 89 | 360 | 10.0 | 20.0 | 0.00 | 0.00 | 0.00 | 40 | 1013.4 |
| 20260831032055 | 89 | 360 | 11.0 | 20.0 | 0.00 | 0.00 | 0.00 | 40 | 1013.2 |
| 20260831031606 | 89 | 360 | 10.0 | 24.0 | 0.00 | 0.00 | 0.00 | 40 | 1013.0 |
| 20260831031051 | 89 | 360 | 13.0 | 24.0 | 0.00 | 0.00 | 0.00 | 40 | 1013.1 |
| 20260831030552 | 89 | 360 | 12.0 | 21.0 | 0.00 | 0.00 | 0.00 | 40 | 1013.1 |
| 20260831030106 | 89 | 360 | 11.0 | 21.0 | 0.00 | 0.00 | 0.00 | 39 | 1013.1 |
| 20260831025551 | 89 | 360 | 10.0 | 20.0 | 0.00 | 0.00 | 0.00 | 38 | 1013.0 |
| 20260831025051 | 89 | 360 | 7.0 | 20.0 | 0.00 | 0.00 | 0.00 | 38 | 1012.9 |
| 20260831024605 | 90 | 360 | 10.0 | 22.0 | 0.00 | 0.00 | 0.00 | 38 | 1013.0 |
| 20260831024052 | 90 | 360 | 8.0 | 22.0 | 0.00 | 0.00 | 0.00 | 38 | 1012.9 |
| 20260831023551 | 90 | 360 | 10.0 | 20.0 | 0.00 | 0.00 | 0.00 | 37 | 1012.9 |
| 20260831023104 | 91 | 360 | 8.0 | 20.0 | 0.00 | 0.00 | 0.00 | 36 | 1012.7 |
| 20260831022554 | 91 | 360 | 8.0 | 20.0 | 0.00 | 0.00 | 0.00 | 35 | 1012.5 |
| 20260831022052 | 92 | 360 | 3.0 | 10.0 | 0.00 | 0.00 | 0.00 | 34 | 1012.4 |
| 20260831021604 | 92 | 360 | 4.0 | 10.0 | 0.00 | 0.00 | 0.00 | 34 | 1012.1 |
| 20260831021052 | 92 | 360 | 3.0 | 9.0 | 0.00 | 0.00 | 0.00 | 34 | 1012.1 |
| 20260831020552 | 93 | 360 | 2.0 | 9.0 | 0.00 | 0.00 | 0.00 | 34 | 1012.1 |
| 20260831020108 | 93 | 360 | 5.0 | 9.0 | 0.00 | 0.00 | 0.00 | 34 | 1012.0 |
| 20260831015551 | 93 | 360 | 3.0 | 10.0 | 0.00 | 0.00 | 0.00 | 34 | 1012.0 |
| 20260831015052 | 93 | 244 | 4.0 | 10.0 | 0.00 | 0.00 | 0.00 | 33 | 1011.9 |
| 20260831014601 | 94 | 261 | 3.0 | 9.0 | 0.00 | 0.00 | 0.00 | 33 | 1012.0 |
| 20260831014052 | 94 | 264 | 2.0 | 9.0 | 0.00 | 0.00 | 0.00 | 32 | 1011.9 |
| 20260831013552 | 94 | 280 | 4.0 | 9.0 | 0.00 | 0.00 | 0.00 | 32 | 1011.9 |
| 20260831013106 | 94 | 273 | 2.0 | 6.0 | 0.00 | 0.00 | 0.00 | 32 | 1011.8 |
| 20260831012550 | 94 | 299 | 1.0 | 7.0 | 0.00 | 0.00 | 0.00 | 32 | 1011.8 |
| 20260831012050 | 94 | 300 | 2.0 | 7.0 | 0.00 | 0.00 | 0.00 | 32 | 1011.9 |
| 20260831011604 | 95 | 313 | 1.0 | 6.0 | 0.00 | 0.00 | 0.00 | 32 | 1011.8 |
| 20260831011049 | 95 | 317 | 2.0 | 6.0 | 0.00 | 0.00 | 0.00 | 31 | 1011.8 |
| 20260831010549 | 95 | 352 | 2.0 | 5.0 | 0.00 | 0.00 | 0.00 | 31 | 1011.7 |
| 20260831005550 | 95 | 0 | 2.0 | 8.0 | 0.00 | 0.00 | 0.00 | 31 | 1011.8 |
| 20260831005051 | 95 | 336 | 2.0 | 8.0 | 0.00 | 0.00 | 0.00 | 30 | 1011.7 |
| 20260831004614 | 96 | 336 | 3.0 | 10.0 | 0.00 | 0.00 | 0.00 | 30 | 1011.7 |
| 20260831004052 | 96 | 301 | 2.0 | 10.0 | 0.00 | 0.00 | 0.00 | 30 | 1011.6 |
| 20260831003549 | 96 | 322 | 3.0 | 10.0 | 0.00 | 0.00 | 0.00 | 30 | 1011.6 |
| 20260831003105 | 96 | 321 | 3.0 | 10.0 | 0.00 | 0.00 | 0.00 | 29 | 1011.7 |
| 20260831002550 | 97 | 337 | 2.0 | 6.0 | 0.00 | 0.00 | 0.00 | 29 | 1011.8 |
| 20260831002052 | 97 | 293 | 1.0 | 6.0 | 0.00 | 0.00 | 0.00 | 29 | 1011.7 |
| 20260831001600 | 97 | 0 | 0.0 | 11.0 | 0.00 | 0.00 | 0.00 | 28 | 1011.7 |
| 20260831001052 | 97 | 290 | 5.0 | 12.0 | 0.00 | 0.00 | 0.00 | 27 | 1011.9 |
| 20260831000549 | 98 | 242 | 3.0 | 12.0 | 0.00 | 0.00 | 0.00 | 27 | 1011.8 |
| 20260830235551 | 98 | 10 | 3.0 | 8.0 | 0.00 | 0.00 | 0.00 | 28 | 1011.7 |
| 20260830235050 | 98 | 300 | 3.0 | 8.0 | 0.00 | 0.00 | 0.00 | 28 | 1011.7 |
| 20260830234612 | 98 | 322 | 3.0 | 8.0 | 0.00 | 0.00 | 0.00 | 27 | 1011.7 |
| 20260830234049 | 98 | 344 | 2.0 | 8.0 | 0.00 | 0.00 | 0.00 | 28 | 1011.7 |
| 20260830233549 | 97 | 325 | 3.0 | 12.0 | 0.00 | 0.00 | 0.00 | 28 | 1011.6 |
| 20260830233108 | 97 | 15 | 2.0 | 12.0 | 0.00 | 0.00 | 0.00 | 29 | 1011.7 |
| 20260830232552 | 97 | 310 | 3.0 | 9.0 | 0.00 | 0.00 | 0.00 | 28 | 1011.9 |
| 20260830232054 | 98 | 347 | 3.0 | 9.0 | 0.00 | 0.00 | 0.00 | 28 | 1011.8 |
| 20260830231600 | 97 | 21 | 2.0 | 11.0 | 0.00 | 0.00 | 0.00 | 28 | 1011.9 |
| 20260830231051 | 97 | 13 | 3.0 | 11.0 | 0.00 | 0.00 | 0.00 | 29 | 1012.0 |
| 20260830230548 | 96 | 331 | 5.0 | 11.0 | 0.00 | 0.00 | 0.00 | 29 | 1012.1 |
| 20260830230056 | 96 | 306 | 2.0 | 8.0 | 0.00 | 0.00 | 0.00 | 29 | 1012.1 |
| 20260830225555 | 96 | 28 | 2.0 | 5.0 | 0.00 | 0.00 | 0.00 | 29 | 1012.3 |
| 20260830225053 | 96 | 73 | 1.0 | 5.0 | 0.00 | 0.00 | 0.00 | 30 | 1012.4 |
| 20260830224606 | 97 | 0 | 3.0 | 8.0 | 0.00 | 0.00 | 0.00 | 29 | 1012.5 |
| 20260830224049 | 97 | 351 | 2.0 | 8.0 | 0.00 | 0.00 | 0.00 | 29 | 1012.6 |
| 20260830223549 | 98 | 348 | 3.0 | 9.0 | 0.00 | 0.00 | 0.00 | 29 | 1012.6 |
| 20260830223102 | 98 | 254 | 4.0 | 9.0 | 0.00 | 0.00 | 0.00 | 29 | 1012.7 |
| 20260830222550 | 98 | 268 | 2.0 | 8.0 | 0.00 | 0.00 | 0.00 | 29 | 1012.9 |
| 20260830222049 | 98 | 294 | 2.0 | 9.0 | 0.00 | 0.00 | 0.00 | 29 | 1013.0 |
| 20260830221600 | 98 | 265 | 3.0 | 10.0 | 0.00 | 0.00 | 0.00 | 29 | 1013.0 |
| 20260830221051 | 97 | 255 | 6.0 | 10.0 | 0.00 | 0.00 | 0.00 | 29 | 1013.0 |
| 20260830220552 | 98 | 295 | 3.0 | 9.0 | 0.00 | 0.00 | 0.00 | 30 | 1013.1 |
| 20260830220104 | 98 | 21 | 2.0 | 9.0 | 0.00 | 0.00 | 0.00 | 29 | 1013.2 |
| 20260830215551 | 99 | 311 | 3.0 | 9.0 | 0.00 | 0.00 | 0.00 | 29 | 1013.3 |
| 20260830215053 | 99 | 340 | 1.0 | 12.0 | 0.00 | 0.00 | 0.00 | 29 | 1013.3 |
| 20260830214600 | 99 | 267 | 5.0 | 12.0 | 0.00 | 0.00 | 0.00 | 29 | 1013.5 |
| 20260830214054 | 98 | 271 | 3.0 | 12.0 | 0.00 | 0.00 | 0.00 | 29 | 1013.6 |
| 20260830213548 | 99 | 248 | 3.0 | 11.0 | 0.00 | 0.00 | 0.00 | 28 | 1013.6 |
| 20260830213107 | 99 | 31 | 3.0 | 10.0 | 0.00 | 0.00 | 0.00 | 28 | 1013.6 |
| 20260830212552 | 99 | 252 | 5.0 | 10.0 | 0.00 | 0.00 | 0.00 | 28 | 1013.7 |
| 20260830212049 | 99 | 288 | 5.0 | 10.0 | 0.00 | 0.00 | 0.00 | 29 | 1013.8 |
| 20260830211601 | 98 | 13 | 2.0 | 8.0 | 0.00 | 0.00 | 0.00 | 30 | 1013.9 |
| 20260830211048 | 97 | 331 | 1.0 | 7.0 | 0.00 | 0.00 | 0.00 | 30 | 1013.9 |
| 20260830210551 | 97 | 69 | 4.0 | 10.0 | 0.00 | 0.00 | 0.00 | 30 | 1014.1 |
| 20260830210104 | 99 | 17 | 5.0 | 10.0 | 0.00 | 0.00 | 0.00 | 29 | 1014.1 |
| 20260830205552 | 98 | 300 | 2.0 | 11.0 | 0.00 | 0.00 | 0.00 | 30 | 1014.2 |
| 20260830205052 | 98 | 308 | 5.0 | 11.0 | 0.00 | 0.00 | 0.00 | 30 | 1014.4 |
| 20260830204614 | 97 | 240 | 3.0 | 9.0 | 0.00 | 0.00 | 0.00 | 31 | 1014.3 |
| 20260830204052 | 97 | 265 | 3.0 | 8.0 | 0.00 | 0.00 | 0.00 | 31 | 1014.6 |
| 20260830203549 | 96 | 0 | 2.0 | 8.0 | 0.00 | 0.00 | 0.00 | 32 | 1014.6 |
| 20260830203107 | 96 | 294 | 3.0 | 8.0 | 0.00 | 0.00 | 0.00 | 32 | 1014.7 |
| 20260830202553 | 96 | 29 | 0.0 | 9.0 | 0.00 | 0.00 | 0.00 | 32 | 1014.7 |
| 20260830202050 | 96 | 34 | 3.0 | 9.0 | 0.00 | 0.00 | 0.00 | 32 | 1014.9 |
| 20260830201628 | 96 | 60 | 3.0 | 8.0 | 0.00 | 0.00 | 0.00 | 31 | 1015.0 |
| 20260830201048 | 96 | 121 | 1.0 | 11.0 | 0.00 | 0.00 | 0.00 | 31 | 1015.0 |
| 20260830200551 | 96 | 37 | 5.0 | 11.0 | 0.00 | 0.00 | 0.00 | 31 | 1015.0 |
| 20260830200107 | 97 | 12 | 5.0 | 10.0 | 0.00 | 0.00 | 0.00 | 31 | 1015.0 |
| 20260830195553 | 96 | 73 | 2.0 | 7.0 | 0.00 | 0.00 | 0.00 | 32 | 1015.1 |
| 20260830195051 | 96 | 126 | 2.0 | 9.0 | 0.00 | 0.00 | 0.00 | 32 | 1015.2 |